Epoch 2000 Apr. 6.0 TT = JDT 2451640.5 T 2000 Apr. 24.3032 TT Nakano q 4.200543 (2000.0) P Q z -0.000188 Peri. 164.6215 +0.9722292 +0.1006885 +/-0.000001 Node 195.3946 +0.0088434 +0.8862657 e 1.000789 Incl. 52.7332 +0.2338636 -0.4521006 From 575 observations 1999 May 26-2001 Oct. 15, mean residual 0".6.
m1 = 4.0 + 5 logΔ + 10.0 log r [ ,0] ( 〜2000年 4月24日) m1 = 5.0 + 5 logΔ + 10.0 log r [0, ] (2000年 4月24日〜 )